Weather Roundup
Issued by NWS Springfield, MO

Home | Current Version | Previous Version | Text Only | Print | Product List | Glossary On
Versions: 1 2 3 4 5 6 7 8 9 10 11 12 13 14 15 16 17 18 19 20 21 22 23 24 25 26 27 28 29 30 31 32 33 34 35 36 37 38 39 40 41 42 43 44 45 46 47 48 49 50
000
NZUS99 KSGF 272207
HRRSGF

HOURLY WEATHER
NATIONAL WEATHER SERVICE SPRINGFIELD MO
400 PM CST FRI FEB 27 2015

......SGF CWA......

CITY           SKY/WX    TMP DP  RH WIND       PRES   REMARKS
SPRINGFIELD    CLOUDY    22   2  42 NE7       30.50F WCI  13
JOPLIN         CLOUDY    22   2  42 E7        30.51F WCI  13
WEST PLAINS    CLOUDY    21  -1  38 E3        30.54R
ROLLA          CLOUDY    20  -2  38 CALM      30.53R
OSAGE BEACH    CLOUDY    21  -2  35 E3        30.56S
BRANSON        LGT SNOW  19   9  63 CALM      30.52F

......SURROUNDING SGF CWA......

CITY           SKY/WX    TMP DP  RH WIND       PRES   REMARKS
CHANUTE        FLURRIES  19   5  54 VRB5      30.54S WCI  12
PARSONS        CLOUDY    21   0  39 VRB6      30.54F WCI  13
COFFEYVILLE    CLOUDY    21   3  45 E6        30.54F WCI  13
EMPORIA        CLOUDY    18   0  45 VRB5      30.51F WCI  11
GROVE OK       LGT SNOW  21  18  86 E5        30.54F VSB 1   WCI  15
ROGERS AR      LGT SNOW  16  12  86 E7        30.49F VSB 1   WCI   6
SILOAM SPRINGS CLOUDY    19   7  58 NE7       30.49F WCI  10
HARRISON AR    LGT SNOW  19   7  59 E7        30.51F WCI  10
NEAR YELLVILLE CLOUDY    21   1  42 CALM      30.56S

......KANSAS AND MISSOURI......

CITY           SKY/WX    TMP DP  RH WIND       PRES   REMARKS
KANSAS CTY INT CLOUDY    17   0  47 SE5       30.54F WCI  10
DOWNTOWN KC    PTSUNNY   19   0  43 CALM      30.57F
COLUMBIA       MOSUNNY   21   4  47 N10       30.56F WCI  10
SEDALIA        PTSUNNY   21   1  41 NE5       30.57F WCI  15
ST JOSEPH      MOSUNNY   19  -1  41 SE5       30.56F WCI  12
ST LOUIS       MOSUNNY   19   1  45 N6        30.62F WCI  11
SPIRIT OF STL  PTSUNNY   20  -2  38 N9        30.61F WCI   9
KIRKSVILLE     SUNNY     17   3  54 E3        30.57F
WICHITA        LGT SNOW  16   9  74 SE6       30.50S WCI   7
TOPEKA         PTSUNNY   19   0  43 CALM      30.57R
OLATHE         CLOUDY    19  -2  39 SE3       30.53S

......TENNESSEE......

CITY           SKY/WX    TMP DP  RH WIND       PRES   REMARKS
MEMPHIS        CLOUDY    34  13  41 N8        30.52R WCI  27
NASHVILLE      MOSUNNY   32   9  38 NE8       30.53F WCI  25

......ARKANSAS.......

CITY           SKY/WX    TMP DP  RH WIND       PRES   REMARKS
FAYETTEVILLE   LGT SNOW  19  15  84 NE6       30.49F FOG     WCI  11
FT SMITH       SNOW      22  18  85 E9        30.53F VSB 1/2 WCI  12
LITTLE ROCK    CLOUDY    30   5  34 NE9       30.57F WCI  22

......OKLAHOMA.......

CITY           SKY/WX    TMP DP  RH WIND       PRES   REMARKS
TULSA          LGT SNOW  18  14  84 NE6       30.55S VSB 3/4 WCI  10
PONCA CITY     LGT SNOW  19  11  70 E6        30.52F WCI  11
MCALESTER      LGT SNOW  22  16  78 NE8       30.50R VSB 3/4 WCI  12
OKLAHOMA CITY  LGT SNOW  20  11  68 E10       30.46F WCI   9

......IOWA............

CITY           SKY/WX    TMP DP  RH WIND       PRES   REMARKS
DES MOINES     MOSUNNY   13  -3  49 SW3       30.58F
QUAD CITIES    SUNNY     12  -3  51 W3        30.62S

......ILLINOIS........

CITY           SKY/WX    TMP DP  RH WIND       PRES   REMARKS
QUINCY         SUNNY     12  -5  46 N3        30.62F
CHICAGO        SUNNY     13  -4  46 W10       30.58F WCI   0




USA.gov is the U.S. government's official web portal to all federal, state and local government web resources and services.